Simultaneous Nadir Overpasses (SNOs) Predictions

Prediction of SNOs between FY3D and NOAA-19 Satellite Orbit:

Table of predicted SNOs for the next 14.0 days since TLE Epoch: 2/22/2025
Index Date (FY3D) Time (FY3D) Lat,Lon (FY3D) SZA (FY3D ) Date (NOAA-19) Time (NOAA-19) Lat,Lon (NOAA-19) SZA (NOAA-19 ) Distance(km) Time Diff (sec)
1 02/26/2025 14:37:02 -75.66, 146.51 95.93 02/26/2025 14:35:54 -75.66, 144.11 95.95 66.02 68
2 02/26/2025 15:27:55 76.02, -47.42 84.41 02/26/2025 15:26:42 76.03, -47.32 84.42 2.70 73
3 02/26/2025 16:18:40 -76.04, 119.85 95.59 02/26/2025 16:17:43 -76.01, 119.85 95.62 2.87 57
4 02/26/2025 17:09:25 76.03, -72.83 84.40 02/26/2025 17:08:39 76.02, -72.84 84.39 1.29 46
5 02/26/2025 18:00:10 -76.05, 94.45 95.61 02/26/2025 17:59:39 -76.05, 94.49 95.61 1.17 31
6 02/26/2025 18:50:55 76.04, -98.23 84.38 02/26/2025 18:50:35 76.06, -98.19 84.40 2.02 20
7 02/26/2025 19:41:40 -76.06, 69.04 95.63 02/26/2025 19:41:36 -76.04, 68.97 95.65 2.76 4
8 02/26/2025 20:32:25 76.05,-123.64 84.36 02/26/2025 20:32:32 76.05,-123.71 84.36 1.81 7
9 02/26/2025 21:23:10 -76.07, 43.63 95.64 02/26/2025 21:23:32 -76.07, 43.62 95.64 0.88 22
10 02/26/2025 22:13:55 76.06,-149.05 84.35 02/26/2025 22:14:28 76.09,-149.06 84.37 2.61 33
11 02/26/2025 23:04:40 -76.08, 18.23 95.66 02/26/2025 23:05:29 -76.06, 18.10 95.67 3.66 49
12 02/26/2025 23:55:25 76.07,-174.46 84.33 02/26/2025 23:56:25 76.08,-174.58 84.34 3.27 60
13 02/27/2025 00:46:11 -76.13, -7.34 95.63 02/27/2025 00:47:25 -76.10, -7.26 95.66 4.16 74
14 02/27/2025 01:37:06 76.57, 158.29 84.80 02/27/2025 01:38:11 76.55, 161.74 84.80 89.20 65



Historial Predications of SNOs between FY3D and NOAA-19
